When you browse on this site, cookies collect data to enhance your experience and personalize the content and advertising you see.
Visit our Privacy Policy to learn more. By continuing to use the site, you agree to this use of cookies and data.
  • In Latvia
  • List of Countries
  • For 7 days
  • Water Temperature
  • Weather Map
  • Weather Widgets
  • user-avatar
    Login

    Hourly Weather Surinsk

    Today, 26 May, Tuesday

    Time Temperature Precipitation Wind Pressure Humidity
    00:00 +12°C° 0 mm 1 mps 763 mmHg 67%
    01:00 +12°C° 0 mm 1 mps 763 mmHg 69%
    02:00 +12°C° 0 mm 1 mps 763 mmHg 71%
    03:00 +10°C° 0 mm 2 mps 763 mmHg 77%
    04:00 +12°C° 0 mm 2 mps 763 mmHg 77%
    05:00 +12°C° 0 mm 3 mps 763 mmHg 76%
    06:00 +12°C° 0 mm 3 mps 763 mmHg 76%
    07:00 +14°C° 0 mm 4 mps 763 mmHg 72%
    08:00 +15°C° 0 mm 5 mps 763 mmHg 68%
    09:00 +17°C° 0 mm 6 mps 763 mmHg 65%
    10:00 +17°C° 0 mm 7 mps 762 mmHg 63%
    11:00 +18°C° 0 mm 8 mps 761 mmHg 62%
    12:00 +20°C° 0 mm 8 mps 760 mmHg 60%
    13:00 +20°C° 0 mm 8 mps 760 mmHg 61%
    14:00 +19°C° 0 mm 9 mps 760 mmHg 61%
    15:00 +19°C° 0 mm 9 mps 759 mmHg 61%
    16:00 +20°C° 0 mm 8 mps 758 mmHg 65%
    17:00 +18°C° 0 mm 7 mps 758 mmHg 69%
    18:00 +17°C° 0 mm 6 mps 757 mmHg 73%
    19:00 +17°C° 0.1 mm 7 mps 756 mmHg 74%
    20:00 +16°C° 0.1 mm 7 mps 755 mmHg 76%
    21:00 +15°C° 0.1 mm 8 mps 755 mmHg 78%
    22:00 +15°C° 1.7 mm 7 mps 754 mmHg 82%
    23:00 +14°C° 1.7 mm 6 mps 753 mmHg 87%

    Tomorrow, 27 May, Wednesday

    Time Temperature Precipitation Wind Pressure Humidity
    00:00 +14°C° 1.7 mm 6 mps 753 mmHg 91%
    01:00 +13°C° 0.1 mm 5 mps 752 mmHg 93%
    02:00 +13°C° 0.1 mm 5 mps 752 mmHg 94%
    03:00 +13°C° 0.1 mm 4 mps 752 mmHg 95%
    04:00 +13°C° 0 mm 4 mps 752 mmHg 95%
    05:00 +14°C° 0 mm 3 mps 752 mmHg 94%
    06:00 +16°C° 0 mm 2 mps 752 mmHg 93%
    07:00 +17°C° 0 mm 3 mps 752 mmHg 91%
    08:00 +18°C° 0 mm 4 mps 753 mmHg 88%
    09:00 +19°C° 0 mm 5 mps 753 mmHg 85%
    10:00 +19°C° 0 mm 5 mps 753 mmHg 82%
    11:00 +20°C° 0 mm 4 mps 754 mmHg 79%
    12:00 +21°C° 0 mm 4 mps 754 mmHg 76%
    13:00 +21°C° 0 mm 4 mps 754 mmHg 76%
    14:00 +20°C° 0 mm 4 mps 755 mmHg 76%
    15:00 +20°C° 0 mm 4 mps 755 mmHg 76%
    16:00 +20°C° 0 mm 4 mps 756 mmHg 77%
    17:00 +19°C° 0 mm 4 mps 756 mmHg 79%
    18:00 +18°C° 0 mm 3 mps 756 mmHg 81%
    19:00 +17°C° 0 mm 3 mps 757 mmHg 85%
    20:00 +16°C° 0 mm 3 mps 757 mmHg 89%
    21:00 +13°C° 0 mm 3 mps 757 mmHg 93%
    22:00 +13°C° 0 mm 3 mps 757 mmHg 93%
    23:00 +12°C° 0 mm 3 mps 757 mmHg 93%

    Day after tomorrow, 28 May, Thursday

    Time Temperature Precipitation Wind Pressure Humidity
    00:00 +11°C° 0 mm 3 mps 757 mmHg 94%
    01:00 +11°C° 0 mm 3 mps 758 mmHg 94%
    02:00 +10°C° 0 mm 2 mps 758 mmHg 95%
    03:00 +10°C° 0 mm 2 mps 758 mmHg 95%
    04:00 +10°C° 0 mm 3 mps 758 mmHg 92%
    05:00 +11°C° 0 mm 3 mps 758 mmHg 88%
    06:00 +12°C° 0 mm 3 mps 758 mmHg 84%
    07:00 +13°C° 0 mm 3 mps 759 mmHg 79%
    08:00 +16°C° 0 mm 3 mps 759 mmHg 73%
    09:00 +17°C° 0 mm 3 mps 759 mmHg 68%
    10:00 +18°C° 0 mm 3 mps 759 mmHg 64%
    11:00 +19°C° 0 mm 3 mps 759 mmHg 61%
    12:00 +20°C° 0 mm 3 mps 758 mmHg 58%
    13:00 +20°C° 0 mm 3 mps 758 mmHg 58%
    14:00 +21°C° 0 mm 3 mps 758 mmHg 58%
    15:00 +21°C° 0 mm 3 mps 758 mmHg 58%
    16:00 +20°C° 0 mm 3 mps 758 mmHg 62%
    17:00 +20°C° 0 mm 3 mps 758 mmHg 66%
    18:00 +19°C° 0 mm 3 mps 758 mmHg 70%
    19:00 +17°C° 0 mm 2 mps 758 mmHg 73%
    20:00 +16°C° 0 mm 2 mps 758 mmHg 76%
    21:00 +14°C° 0 mm 2 mps 758 mmHg 79%
    22:00 +14°C° 0 mm 2 mps 758 mmHg 82%
    23:00 +14°C° 0 mm 1 mps 758 mmHg 85%

    29 May, Friday

    Time Temperature Precipitation Wind Pressure Humidity
    00:00 +13°C° 0 mm 1 mps 759 mmHg 88%
    01:00 +13°C° 0 mm 1 mps 758 mmHg 88%
    02:00 +12°C° 0 mm 2 mps 758 mmHg 89%
    03:00 +12°C° 0 mm 2 mps 758 mmHg 90%
    04:00 +13°C° 0 mm 2 mps 758 mmHg 88%
    05:00 +13°C° 0 mm 3 mps 758 mmHg 85%
    06:00 +14°C° 0 mm 3 mps 758 mmHg 82%
    07:00 +15°C° 0 mm 4 mps 758 mmHg 78%
    08:00 +18°C° 0 mm 4 mps 758 mmHg 73%
    09:00 +19°C° 0 mm 4 mps 758 mmHg 68%
    10:00 +20°C° 0 mm 4 mps 757 mmHg 65%
    11:00 +21°C° 0 mm 4 mps 757 mmHg 63%
    12:00 +22°C° 0 mm 4 mps 757 mmHg 60%
    13:00 +22°C° 0 mm 4 mps 757 mmHg 59%
    14:00 +23°C° 0 mm 5 mps 756 mmHg 59%
    15:00 +23°C° 0 mm 5 mps 756 mmHg 59%
    16:00 +23°C° 0 mm 4 mps 755 mmHg 63%
    17:00 +22°C° 0 mm 4 mps 755 mmHg 68%
    18:00 +21°C° 0 mm 4 mps 755 mmHg 72%
    19:00 +20°C° 0 mm 4 mps 755 mmHg 77%
    20:00 +19°C° 0 mm 4 mps 755 mmHg 81%
    21:00 +17°C° 0 mm 4 mps 755 mmHg 86%
    22:00 +17°C° 0 mm 4 mps 755 mmHg 87%
    23:00 +15°C° 0 mm 4 mps 754 mmHg 88%

    30 May, Saturday

    Time Temperature Precipitation Wind Pressure Humidity
    00:00 +14°C° 0 mm 3 mps 754 mmHg 89%
    01:00 +14°C° 0 mm 4 mps 754 mmHg 90%
    02:00 +13°C° 0 mm 4 mps 753 mmHg 90%
    03:00 +13°C° 0 mm 4 mps 753 mmHg 91%
    04:00 +14°C° 0 mm 4 mps 753 mmHg 88%
    05:00 +14°C° 0 mm 4 mps 753 mmHg 85%
    06:00 +15°C° 0 mm 5 mps 753 mmHg 82%
    07:00 +17°C° 0 mm 5 mps 752 mmHg 78%
    08:00 +19°C° 0 mm 5 mps 752 mmHg 74%
    09:00 +21°C° 0 mm 5 mps 751 mmHg 70%
    10:00 +22°C° 0 mm 5 mps 751 mmHg 69%
    11:00 +25°C° 0 mm 5 mps 751 mmHg 67%
    12:00 +26°C° 0 mm 5 mps 751 mmHg 66%
    13:00 +26°C° 0 mm 5 mps 750 mmHg 66%
    14:00 +27°C° 0 mm 5 mps 749 mmHg 65%
    15:00 +28°C° 0 mm 5 mps 749 mmHg 65%
    16:00 +27°C° 0 mm 5 mps 748 mmHg 69%
    17:00 +26°C° 0 mm 4 mps 748 mmHg 73%
    18:00 +26°C° 0 mm 4 mps 747 mmHg 77%
    19:00 +25°C° 0 mm 4 mps 747 mmHg 79%
    20:00 +23°C° 0 mm 4 mps 746 mmHg 81%
    21:00 +23°C° 0 mm 5 mps 745 mmHg 82%
    22:00 +22°C° 0 mm 5 mps 745 mmHg 80%
    23:00 +22°C° 0 mm 5 mps 745 mmHg 77%

    31 May, Sunday

    Time Temperature Precipitation Wind Pressure Humidity
    00:00 +22°C° 0 mm 4 mps 745 mmHg 75%
    01:00 +21°C° 0 mm 4 mps 745 mmHg 79%
    02:00 +20°C° 0 mm 4 mps 745 mmHg 83%
    03:00 +19°C° 0 mm 4 mps 745 mmHg 87%
    04:00 +20°C° 0 mm 5 mps 745 mmHg 87%
    05:00 +20°C° 0 mm 6 mps 746 mmHg 87%
    06:00 +20°C° 0 mm 6 mps 746 mmHg 87%
    07:00 +20°C° 0 mm 6 mps 747 mmHg 84%
    08:00 +20°C° 0 mm 6 mps 747 mmHg 82%
    09:00 +20°C° 0 mm 6 mps 748 mmHg 80%
    10:00 +21°C° 0 mm 6 mps 748 mmHg 77%
    11:00 +21°C° 0 mm 6 mps 749 mmHg 74%
    12:00 +22°C° 0 mm 6 mps 749 mmHg 72%
    13:00 +22°C° 0.2 mm 6 mps 749 mmHg 71%
    14:00 +22°C° 0.2 mm 7 mps 749 mmHg 70%
    15:00 +22°C° 0.2 mm 7 mps 749 mmHg 69%
    16:00 +22°C° 0.2 mm 6 mps 749 mmHg 71%
    17:00 +21°C° 0.2 mm 6 mps 749 mmHg 73%
    18:00 +20°C° 0.2 mm 5 mps 749 mmHg 76%
    19:00 +19°C° 0 mm 5 mps 749 mmHg 79%
    20:00 +17°C° 0 mm 5 mps 749 mmHg 83%
    21:00 +15°C° 0 mm 5 mps 749 mmHg 86%
    22:00 +15°C° 0 mm 5 mps 749 mmHg 87%
    23:00 +14°C° 0 mm 5 mps 750 mmHg 88%
    Show more